#datetime,building,power
2023-09-24T00:00:00,mcc,51.54
2023-09-24T00:01:00,mcc,49.44
2023-09-24T00:02:00,mcc,52.42
2023-09-24T00:03:00,mcc,55.55
2023-09-24T00:04:00,mcc,54.44
2023-09-24T00:05:00,mcc,52.63
2023-09-24T00:06:00,mcc,53.95
2023-09-24T00:07:00,mcc,51.31
2023-09-24T00:08:00,mcc,50.56
2023-09-24T00:09:00,mcc,52.31
2023-09-24T00:10:00,mcc,45.35
2023-09-24T00:11:00,mcc,44.85
2023-09-24T00:12:00,mcc,47.42
2023-09-24T00:13:00,mcc,46.62
2023-09-24T00:14:00,mcc,48.08
2023-09-24T00:15:00,mcc,49.26
2023-09-24T00:16:00,mcc,47.94
2023-09-24T00:17:00,mcc,54.95
2023-09-24T00:18:00,mcc,55.08
2023-09-24T00:19:00,mcc,55.79
2023-09-24T00:20:00,mcc,54.31
2023-09-24T00:21:00,mcc,55.21
2023-09-24T00:22:00,mcc,45.86
2023-09-24T00:23:00,mcc,46.99
2023-09-24T00:24:00,mcc,48.96
2023-09-24T00:25:00,mcc,41.51
2023-09-24T00:26:00,mcc,41.35
2023-09-24T00:27:00,mcc,39.07
2023-09-24T00:28:00,mcc,36.06
2023-09-24T00:29:00,mcc,38.60
2023-09-24T00:30:00,mcc,38.26
2023-09-24T00:31:00,mcc,37.54
2023-09-24T00:32:00,mcc,39.84
2023-09-24T00:33:00,mcc,39.52
2023-09-24T00:34:00,mcc,40.61
2023-09-24T00:35:00,mcc,42.16
2023-09-24T00:36:00,mcc,39.97
2023-09-24T00:37:00,mcc,40.89
2023-09-24T00:38:00,mcc,39.05
2023-09-24T00:39:00,mcc,40.43
2023-09-24T00:40:00,mcc,39.41
2023-09-24T00:41:00,mcc,39.91
2023-09-24T00:42:00,mcc,41.79
2023-09-24T00:43:00,mcc,42.99
2023-09-24T00:44:00,mcc,55.29
2023-09-24T00:45:00,mcc,55.85
2023-09-24T00:46:00,mcc,40.88
2023-09-24T00:47:00,mcc,40.08
2023-09-24T00:48:00,mcc,37.26
2023-09-24T00:49:00,mcc,38.18
2023-09-24T00:50:00,mcc,37.04
2023-09-24T00:51:00,mcc,36.36
2023-09-24T00:52:00,mcc,37.24
2023-09-24T00:53:00,mcc,37.35
2023-09-24T00:54:00,mcc,38.78
2023-09-24T00:55:00,mcc,36.14
2023-09-24T00:56:00,mcc,36.21
2023-09-24T00:57:00,mcc,37.10
2023-09-24T00:58:00,mcc,36.73
2023-09-24T00:59:00,mcc,36.80
2023-09-24T01:00:00,mcc,36.85
2023-09-24T01:01:00,mcc,38.59
2023-09-24T01:02:00,mcc,37.23
2023-09-24T01:03:00,mcc,37.39
2023-09-24T01:04:00,mcc,36.25
2023-09-24T01:05:00,mcc,36.28
2023-09-24T01:06:00,mcc,36.51
2023-09-24T01:07:00,mcc,37.18
2023-09-24T01:08:00,mcc,36.24
2023-09-24T01:09:00,mcc,38.09
2023-09-24T01:10:00,mcc,39.13
2023-09-24T01:11:00,mcc,38.27
2023-09-24T01:12:00,mcc,39.94
2023-09-24T01:13:00,mcc,39.02
2023-09-24T01:14:00,mcc,40.25
2023-09-24T01:15:00,mcc,39.32
2023-09-24T01:16:00,mcc,38.70
2023-09-24T01:17:00,mcc,37.95
2023-09-24T01:18:00,mcc,38.29
2023-09-24T01:19:00,mcc,42.45
2023-09-24T01:20:00,mcc,39.33
2023-09-24T01:21:00,mcc,39.22
2023-09-24T01:22:00,mcc,40.38
2023-09-24T01:23:00,mcc,38.04
2023-09-24T01:24:00,mcc,38.57
2023-09-24T01:25:00,mcc,40.56
2023-09-24T01:26:00,mcc,39.22
2023-09-24T01:27:00,mcc,39.33
2023-09-24T01:28:00,mcc,41.72
2023-09-24T01:29:00,mcc,39.15
2023-09-24T01:30:00,mcc,40.87
2023-09-24T01:31:00,mcc,40.21
2023-09-24T01:32:00,mcc,38.69
2023-09-24T01:33:00,mcc,37.79
2023-09-24T01:34:00,mcc,40.17
2023-09-24T01:35:00,mcc,38.45
2023-09-24T01:36:00,mcc,39.31
2023-09-24T01:37:00,mcc,38.47
2023-09-24T01:38:00,mcc,36.86
2023-09-24T01:39:00,mcc,35.98
2023-09-24T01:40:00,mcc,37.97
2023-09-24T01:41:00,mcc,43.75
2023-09-24T01:42:00,mcc,35.66
2023-09-24T01:43:00,mcc,37.20
2023-09-24T01:44:00,mcc,36.43
2023-09-24T01:45:00,mcc,37.54
2023-09-24T01:46:00,mcc,39.87
2023-09-24T01:47:00,mcc,39.05
2023-09-24T01:48:00,mcc,36.57
2023-09-24T01:49:00,mcc,39.65
2023-09-24T01:50:00,mcc,36.12
2023-09-24T01:51:00,mcc,36.53
2023-09-24T01:52:00,mcc,47.91
2023-09-24T01:53:00,mcc,35.69
2023-09-24T01:54:00,mcc,35.57
2023-09-24T01:55:00,mcc,35.73
2023-09-24T01:56:00,mcc,40.43
2023-09-24T01:57:00,mcc,36.73
2023-09-24T01:58:00,mcc,36.62
2023-09-24T01:59:00,mcc,39.40
2023-09-24T02:00:00,mcc,38.01
2023-09-24T02:01:00,mcc,37.16
2023-09-24T02:02:00,mcc,41.34
2023-09-24T02:03:00,mcc,38.90
2023-09-24T02:04:00,mcc,38.51
2023-09-24T02:05:00,mcc,39.80
2023-09-24T02:06:00,mcc,37.62
2023-09-24T02:07:00,mcc,37.53
2023-09-24T02:08:00,mcc,39.69
2023-09-24T02:09:00,mcc,36.15
2023-09-24T02:10:00,mcc,35.67
2023-09-24T02:11:00,mcc,36.79
2023-09-24T02:12:00,mcc,35.77
2023-09-24T02:13:00,mcc,34.85
2023-09-24T02:14:00,mcc,36.00
2023-09-24T02:15:00,mcc,34.93
2023-09-24T02:16:00,mcc,37.13
2023-09-24T02:17:00,mcc,40.61
2023-09-24T02:18:00,mcc,35.58
2023-09-24T02:19:00,mcc,42.57
2023-09-24T02:20:00,mcc,39.05
2023-09-24T02:21:00,mcc,37.23
2023-09-24T02:22:00,mcc,37.14
2023-09-24T02:23:00,mcc,40.69
2023-09-24T02:24:00,mcc,39.22
2023-09-24T02:25:00,mcc,40.23
2023-09-24T02:26:00,mcc,40.86
2023-09-24T02:27:00,mcc,38.61
2023-09-24T02:28:00,mcc,35.41
2023-09-24T02:29:00,mcc,38.20
2023-09-24T02:30:00,mcc,35.78
2023-09-24T02:31:00,mcc,38.53
2023-09-24T02:32:00,mcc,40.61
2023-09-24T02:33:00,mcc,38.62
2023-09-24T02:34:00,mcc,38.21
2023-09-24T02:35:00,mcc,40.55
2023-09-24T02:36:00,mcc,39.24
2023-09-24T02:37:00,mcc,37.05
2023-09-24T02:38:00,mcc,47.94
2023-09-24T02:39:00,mcc,37.51
2023-09-24T02:40:00,mcc,36.93
2023-09-24T02:41:00,mcc,36.13
2023-09-24T02:42:00,mcc,36.04
2023-09-24T02:43:00,mcc,35.98
2023-09-24T02:44:00,mcc,35.24
2023-09-24T02:45:00,mcc,35.31
2023-09-24T02:46:00,mcc,35.57
2023-09-24T02:47:00,mcc,35.56
2023-09-24T02:48:00,mcc,35.68
2023-09-24T02:49:00,mcc,37.25
2023-09-24T02:50:00,mcc,36.10
2023-09-24T02:51:00,mcc,35.91
2023-09-24T02:52:00,mcc,36.70
2023-09-24T02:53:00,mcc,37.19
2023-09-24T02:54:00,mcc,36.42
2023-09-24T02:55:00,mcc,36.27
2023-09-24T02:56:00,mcc,36.26
2023-09-24T02:57:00,mcc,35.13
2023-09-24T02:58:00,mcc,35.14
2023-09-24T02:59:00,mcc,52.44
2023-09-24T03:00:00,mcc,39.55
2023-09-24T03:01:00,mcc,39.18
2023-09-24T03:02:00,mcc,39.84
2023-09-24T03:03:00,mcc,37.88
2023-09-24T03:04:00,mcc,38.89
2023-09-24T03:05:00,mcc,35.59
2023-09-24T03:06:00,mcc,35.37
2023-09-24T03:07:00,mcc,35.29
2023-09-24T03:08:00,mcc,35.42
2023-09-24T03:09:00,mcc,35.06
2023-09-24T03:10:00,mcc,34.49
2023-09-24T03:11:00,mcc,35.87
2023-09-24T03:12:00,mcc,36.59
2023-09-24T03:13:00,mcc,38.33
2023-09-24T03:14:00,mcc,41.27
2023-09-24T03:15:00,mcc,41.68
2023-09-24T03:16:00,mcc,38.97
2023-09-24T03:17:00,mcc,37.79
2023-09-24T03:18:00,mcc,46.65
2023-09-24T03:19:00,mcc,38.98
2023-09-24T03:20:00,mcc,36.25
2023-09-24T03:21:00,mcc,38.26
2023-09-24T03:22:00,mcc,38.68
2023-09-24T03:23:00,mcc,38.78
2023-09-24T03:24:00,mcc,37.42
2023-09-24T03:25:00,mcc,38.69
2023-09-24T03:26:00,mcc,38.80
2023-09-24T03:27:00,mcc,39.97
2023-09-24T03:28:00,mcc,42.10
2023-09-24T03:29:00,mcc,51.79
2023-09-24T03:30:00,mcc,49.62
2023-09-24T03:31:00,mcc,50.33
2023-09-24T03:32:00,mcc,38.56
2023-09-24T03:33:00,mcc,36.47
2023-09-24T03:34:00,mcc,38.09
2023-09-24T03:35:00,mcc,37.54
2023-09-24T03:36:00,mcc,36.17
2023-09-24T03:37:00,mcc,35.57
2023-09-24T03:38:00,mcc,36.49
2023-09-24T03:39:00,mcc,35.61
2023-09-24T03:40:00,mcc,35.51
2023-09-24T03:41:00,mcc,35.51
2023-09-24T03:42:00,mcc,37.71
2023-09-24T03:43:00,mcc,38.38
2023-09-24T03:44:00,mcc,37.92
2023-09-24T03:45:00,mcc,38.76
2023-09-24T03:46:00,mcc,36.94
2023-09-24T03:47:00,mcc,38.45
2023-09-24T03:48:00,mcc,38.48
2023-09-24T03:49:00,mcc,36.81
2023-09-24T03:50:00,mcc,38.90
2023-09-24T03:51:00,mcc,37.54
2023-09-24T03:52:00,mcc,37.12
2023-09-24T03:53:00,mcc,41.04
2023-09-24T03:54:00,mcc,39.57
2023-09-24T03:55:00,mcc,41.36
2023-09-24T03:56:00,mcc,41.70
2023-09-24T03:57:00,mcc,40.10
2023-09-24T03:58:00,mcc,39.62
2023-09-24T03:59:00,mcc,35.83
2023-09-24T04:00:00,mcc,36.60
2023-09-24T04:01:00,mcc,35.49
2023-09-24T04:02:00,mcc,37.01
2023-09-24T04:03:00,mcc,37.55
2023-09-24T04:04:00,mcc,38.15
2023-09-24T04:05:00,mcc,37.94
2023-09-24T04:06:00,mcc,52.45
2023-09-24T04:07:00,mcc,49.68
2023-09-24T04:08:00,mcc,37.27
2023-09-24T04:09:00,mcc,39.97
2023-09-24T04:10:00,mcc,37.77
2023-09-24T04:11:00,mcc,40.10
2023-09-24T04:12:00,mcc,41.77
2023-09-24T04:13:00,mcc,39.27
2023-09-24T04:14:00,mcc,40.47
2023-09-24T04:15:00,mcc,38.45
2023-09-24T04:16:00,mcc,39.65
2023-09-24T04:17:00,mcc,38.33
2023-09-24T04:18:00,mcc,39.95
2023-09-24T04:19:00,mcc,34.98
2023-09-24T04:20:00,mcc,36.94
2023-09-24T04:21:00,mcc,36.12
2023-09-24T04:22:00,mcc,37.23
2023-09-24T04:23:00,mcc,37.60
2023-09-24T04:24:00,mcc,41.12
2023-09-24T04:25:00,mcc,39.50
2023-09-24T04:26:00,mcc,36.50
2023-09-24T04:27:00,mcc,37.82
2023-09-24T04:28:00,mcc,38.26
2023-09-24T04:29:00,mcc,38.35
2023-09-24T04:30:00,mcc,42.43
2023-09-24T04:31:00,mcc,41.07
2023-09-24T04:32:00,mcc,40.57
2023-09-24T04:33:00,mcc,39.75
2023-09-24T04:34:00,mcc,40.52
2023-09-24T04:35:00,mcc,39.14
2023-09-24T04:36:00,mcc,35.85
2023-09-24T04:37:00,mcc,36.20
2023-09-24T04:38:00,mcc,36.13
2023-09-24T04:39:00,mcc,36.86
2023-09-24T04:40:00,mcc,39.09
2023-09-24T04:41:00,mcc,37.31
2023-09-24T04:42:00,mcc,36.51
2023-09-24T04:43:00,mcc,40.30
2023-09-24T04:44:00,mcc,38.17
2023-09-24T04:45:00,mcc,38.27
2023-09-24T04:46:00,mcc,43.09
2023-09-24T04:47:00,mcc,39.91
2023-09-24T04:48:00,mcc,40.70
2023-09-24T04:49:00,mcc,42.89
2023-09-24T04:50:00,mcc,41.63
2023-09-24T04:51:00,mcc,41.83
2023-09-24T04:52:00,mcc,40.59
2023-09-24T04:53:00,mcc,37.28
2023-09-24T04:54:00,mcc,44.24
2023-09-24T04:55:00,mcc,38.53
2023-09-24T04:56:00,mcc,37.62
2023-09-24T04:57:00,mcc,39.18
2023-09-24T04:58:00,mcc,40.34
2023-09-24T04:59:00,mcc,37.96
2023-09-24T05:00:00,mcc,36.88
2023-09-24T05:01:00,mcc,38.21
2023-09-24T05:02:00,mcc,35.85
2023-09-24T05:03:00,mcc,35.12
2023-09-24T05:04:00,mcc,40.37
2023-09-24T05:05:00,mcc,41.42
2023-09-24T05:06:00,mcc,41.77
2023-09-24T05:07:00,mcc,43.05
2023-09-24T05:08:00,mcc,39.29
2023-09-24T05:09:00,mcc,37.89
2023-09-24T05:10:00,mcc,41.16
2023-09-24T05:11:00,mcc,39.03
2023-09-24T05:12:00,mcc,39.48
2023-09-24T05:13:00,mcc,61.90
2023-09-24T05:14:00,mcc,38.35
2023-09-24T05:15:00,mcc,39.93
2023-09-24T05:16:00,mcc,39.21
2023-09-24T05:17:00,mcc,38.58
2023-09-24T05:18:00,mcc,37.55
2023-09-24T05:19:00,mcc,38.89
2023-09-24T05:20:00,mcc,36.43
2023-09-24T05:21:00,mcc,36.31
2023-09-24T05:22:00,mcc,35.70
2023-09-24T05:23:00,mcc,34.15
2023-09-24T05:24:00,mcc,33.39
2023-09-24T05:25:00,mcc,35.10
2023-09-24T05:26:00,mcc,37.46
2023-09-24T05:27:00,mcc,37.35
2023-09-24T05:28:00,mcc,38.00
2023-09-24T05:29:00,mcc,38.08
2023-09-24T05:30:00,mcc,37.43
2023-09-24T05:31:00,mcc,39.33
2023-09-24T05:32:00,mcc,46.34
2023-09-24T05:33:00,mcc,37.47
2023-09-24T05:34:00,mcc,37.92
2023-09-24T05:35:00,mcc,41.59
2023-09-24T05:36:00,mcc,37.23
2023-09-24T05:37:00,mcc,37.68
2023-09-24T05:38:00,mcc,40.04
2023-09-24T05:39:00,mcc,43.69
2023-09-24T05:40:00,mcc,43.87
2023-09-24T05:41:00,mcc,47.52
2023-09-24T05:42:00,mcc,45.24
2023-09-24T05:43:00,mcc,38.13
2023-09-24T05:44:00,mcc,38.68
2023-09-24T05:45:00,mcc,39.29
2023-09-24T05:46:00,mcc,38.61
2023-09-24T05:47:00,mcc,41.50
2023-09-24T05:48:00,mcc,39.05
2023-09-24T05:49:00,mcc,38.52
2023-09-24T05:50:00,mcc,38.57
2023-09-24T05:51:00,mcc,36.80
2023-09-24T05:52:00,mcc,46.54
2023-09-24T05:53:00,mcc,38.87
2023-09-24T05:54:00,mcc,36.33
2023-09-24T05:55:00,mcc,37.22
2023-09-24T05:56:00,mcc,36.71
2023-09-24T05:57:00,mcc,36.25
2023-09-24T05:58:00,mcc,36.15
2023-09-24T05:59:00,mcc,38.56
2023-09-24T06:00:00,mcc,36.97
2023-09-24T06:01:00,mcc,37.10
2023-09-24T06:02:00,mcc,38.47
2023-09-24T06:03:00,mcc,36.68
2023-09-24T06:04:00,mcc,36.76
2023-09-24T06:05:00,mcc,39.34
2023-09-24T06:06:00,mcc,36.41
2023-09-24T06:07:00,mcc,48.51
2023-09-24T06:08:00,mcc,42.33
2023-09-24T06:09:00,mcc,42.81
2023-09-24T06:10:00,mcc,42.78
2023-09-24T06:11:00,mcc,44.06
2023-09-24T06:12:00,mcc,46.90
2023-09-24T06:13:00,mcc,43.35
2023-09-24T06:14:00,mcc,43.66
2023-09-24T06:15:00,mcc,45.86
2023-09-24T06:16:00,mcc,44.61
2023-09-24T06:17:00,mcc,43.98
2023-09-24T06:18:00,mcc,44.42
2023-09-24T06:19:00,mcc,41.49
2023-09-24T06:20:00,mcc,39.51
2023-09-24T06:21:00,mcc,53.38
2023-09-24T06:22:00,mcc,40.04
2023-09-24T06:23:00,mcc,40.15
2023-09-24T06:24:00,mcc,40.49
2023-09-24T06:25:00,mcc,38.84
2023-09-24T06:26:00,mcc,40.05
2023-09-24T06:27:00,mcc,43.61
2023-09-24T06:28:00,mcc,40.35
2023-09-24T06:29:00,mcc,41.30
2023-09-24T06:30:00,mcc,49.71
2023-09-24T06:31:00,mcc,39.09
2023-09-24T06:32:00,mcc,39.50
2023-09-24T06:33:00,mcc,43.69
2023-09-24T06:34:00,mcc,39.11
2023-09-24T06:35:00,mcc,39.09
2023-09-24T06:36:00,mcc,44.23
2023-09-24T06:37:00,mcc,40.94
2023-09-24T06:38:00,mcc,40.67
2023-09-24T06:39:00,mcc,40.85
2023-09-24T06:40:00,mcc,36.17
2023-09-24T06:41:00,mcc,36.35
2023-09-24T06:42:00,mcc,39.12
2023-09-24T06:43:00,mcc,36.61
2023-09-24T06:44:00,mcc,36.11
2023-09-24T06:45:00,mcc,39.18
2023-09-24T06:46:00,mcc,36.08
2023-09-24T06:47:00,mcc,35.43
2023-09-24T06:48:00,mcc,34.69
2023-09-24T06:49:00,mcc,43.65
2023-09-24T06:50:00,mcc,35.86
2023-09-24T06:51:00,mcc,36.33
2023-09-24T06:52:00,mcc,37.91
2023-09-24T06:53:00,mcc,35.07
2023-09-24T06:54:00,mcc,36.38
2023-09-24T06:55:00,mcc,36.89
2023-09-24T06:56:00,mcc,37.08
2023-09-24T06:57:00,mcc,39.11
2023-09-24T06:58:00,mcc,39.74
2023-09-24T06:59:00,mcc,40.18
2023-09-24T07:00:00,mcc,40.74
2023-09-24T07:01:00,mcc,38.68
2023-09-24T07:02:00,mcc,37.93
2023-09-24T07:03:00,mcc,37.57
2023-09-24T07:04:00,mcc,38.64
2023-09-24T07:05:00,mcc,38.07
2023-09-24T07:06:00,mcc,36.77
2023-09-24T07:07:00,mcc,34.49
2023-09-24T07:08:00,mcc,34.95
2023-09-24T07:09:00,mcc,44.90
2023-09-24T07:10:00,mcc,34.16
2023-09-24T07:11:00,mcc,34.87
2023-09-24T07:12:00,mcc,34.90
2023-09-24T07:13:00,mcc,37.75
2023-09-24T07:14:00,mcc,35.90
2023-09-24T07:15:00,mcc,35.00
2023-09-24T07:16:00,mcc,37.40
2023-09-24T07:17:00,mcc,37.95
2023-09-24T07:18:00,mcc,37.34
2023-09-24T07:19:00,mcc,37.92
2023-09-24T07:20:00,mcc,38.13
2023-09-24T07:21:00,mcc,36.23
2023-09-24T07:22:00,mcc,38.51
2023-09-24T07:23:00,mcc,36.04
2023-09-24T07:24:00,mcc,37.13
2023-09-24T07:25:00,mcc,37.79
2023-09-24T07:26:00,mcc,37.64
2023-09-24T07:27:00,mcc,60.47
2023-09-24T07:28:00,mcc,40.81
2023-09-24T07:29:00,mcc,37.65
2023-09-24T07:30:00,mcc,37.96
2023-09-24T07:31:00,mcc,37.01
2023-09-24T07:32:00,mcc,40.86
2023-09-24T07:33:00,mcc,39.08
2023-09-24T07:34:00,mcc,37.57
2023-09-24T07:35:00,mcc,39.63
2023-09-24T07:36:00,mcc,36.28
2023-09-24T07:37:00,mcc,37.36
2023-09-24T07:38:00,mcc,39.20
2023-09-24T07:39:00,mcc,35.79
2023-09-24T07:40:00,mcc,35.58
2023-09-24T07:41:00,mcc,36.95
2023-09-24T07:42:00,mcc,34.30
2023-09-24T07:43:00,mcc,34.64
2023-09-24T07:44:00,mcc,37.66
2023-09-24T07:45:00,mcc,36.47
2023-09-24T07:46:00,mcc,43.35
2023-09-24T07:47:00,mcc,39.04
2023-09-24T07:48:00,mcc,37.25
2023-09-24T07:49:00,mcc,36.75
2023-09-24T07:50:00,mcc,38.03
2023-09-24T07:51:00,mcc,38.66
2023-09-24T07:52:00,mcc,38.95
2023-09-24T07:53:00,mcc,40.81
2023-09-24T07:54:00,mcc,44.25
2023-09-24T07:55:00,mcc,43.89
2023-09-24T07:56:00,mcc,42.75
2023-09-24T07:57:00,mcc,46.29
2023-09-24T07:58:00,mcc,43.09
2023-09-24T07:59:00,mcc,39.35
2023-09-24T08:00:00,mcc,40.10
2023-09-24T08:01:00,mcc,38.01
2023-09-24T08:02:00,mcc,37.67
2023-09-24T08:03:00,mcc,50.52
2023-09-24T08:04:00,mcc,45.45
2023-09-24T08:05:00,mcc,45.82
2023-09-24T08:06:00,mcc,39.48
2023-09-24T08:07:00,mcc,40.07
2023-09-24T08:08:00,mcc,38.54
2023-09-24T08:09:00,mcc,40.06
2023-09-24T08:10:00,mcc,40.24
2023-09-24T08:11:00,mcc,38.99
2023-09-24T08:12:00,mcc,39.13
2023-09-24T08:13:00,mcc,39.20
2023-09-24T08:14:00,mcc,36.22
2023-09-24T08:15:00,mcc,36.65
2023-09-24T08:16:00,mcc,40.51
2023-09-24T08:17:00,mcc,38.15
2023-09-24T08:18:00,mcc,37.75
2023-09-24T08:19:00,mcc,39.39
2023-09-24T08:20:00,mcc,35.38
2023-09-24T08:21:00,mcc,36.70
2023-09-24T08:22:00,mcc,38.60
2023-09-24T08:23:00,mcc,39.09
2023-09-24T08:24:00,mcc,38.23
2023-09-24T08:25:00,mcc,41.55
2023-09-24T08:26:00,mcc,46.31
2023-09-24T08:27:00,mcc,36.58
2023-09-24T08:28:00,mcc,37.62
2023-09-24T08:29:00,mcc,36.38
2023-09-24T08:30:00,mcc,36.85
2023-09-24T08:31:00,mcc,36.80
2023-09-24T08:32:00,mcc,38.37
2023-09-24T08:33:00,mcc,51.60
2023-09-24T08:34:00,mcc,51.20
2023-09-24T08:35:00,mcc,39.22
2023-09-24T08:36:00,mcc,37.41
2023-09-24T08:37:00,mcc,38.62
2023-09-24T08:38:00,mcc,37.89
2023-09-24T08:39:00,mcc,37.14
2023-09-24T08:40:00,mcc,36.64
2023-09-24T08:41:00,mcc,36.03
2023-09-24T08:42:00,mcc,36.41
2023-09-24T08:43:00,mcc,36.86
2023-09-24T08:44:00,mcc,39.92
2023-09-24T08:45:00,mcc,39.50
2023-09-24T08:46:00,mcc,39.12
2023-09-24T08:47:00,mcc,43.02
2023-09-24T08:48:00,mcc,40.25
2023-09-24T08:49:00,mcc,40.63
2023-09-24T08:50:00,mcc,44.38
2023-09-24T08:51:00,mcc,42.48
2023-09-24T08:52:00,mcc,49.47
2023-09-24T08:53:00,mcc,43.31
2023-09-24T08:54:00,mcc,38.29
2023-09-24T08:55:00,mcc,37.25
2023-09-24T08:56:00,mcc,40.52
2023-09-24T08:57:00,mcc,37.28
2023-09-24T08:58:00,mcc,37.59
2023-09-24T08:59:00,mcc,41.42
2023-09-24T09:00:00,mcc,41.04
2023-09-24T09:01:00,mcc,39.01
2023-09-24T09:02:00,mcc,39.66
2023-09-24T09:03:00,mcc,37.68
2023-09-24T09:04:00,mcc,37.42
2023-09-24T09:05:00,mcc,36.06
2023-09-24T09:06:00,mcc,38.98
2023-09-24T09:07:00,mcc,36.69
2023-09-24T09:08:00,mcc,37.08
2023-09-24T09:09:00,mcc,38.05
2023-09-24T09:10:00,mcc,37.57
2023-09-24T09:11:00,mcc,37.12
2023-09-24T09:12:00,mcc,38.76
2023-09-24T09:13:00,mcc,38.74
2023-09-24T09:14:00,mcc,41.57
2023-09-24T09:15:00,mcc,42.58
2023-09-24T09:16:00,mcc,41.48
2023-09-24T09:17:00,mcc,40.86
2023-09-24T09:18:00,mcc,42.86
2023-09-24T09:19:00,mcc,40.47
2023-09-24T09:20:00,mcc,42.06
2023-09-24T09:21:00,mcc,44.70
2023-09-24T09:22:00,mcc,42.95
2023-09-24T09:23:00,mcc,41.35
2023-09-24T09:24:00,mcc,41.92
2023-09-24T09:25:00,mcc,40.59
2023-09-24T09:26:00,mcc,39.60
2023-09-24T09:27:00,mcc,50.76
2023-09-24T09:28:00,mcc,38.93
2023-09-24T09:29:00,mcc,39.62
2023-09-24T09:30:00,mcc,37.32
2023-09-24T09:31:00,mcc,43.07
2023-09-24T09:32:00,mcc,43.59
2023-09-24T09:33:00,mcc,42.52
2023-09-24T09:34:00,mcc,44.01
2023-09-24T09:35:00,mcc,44.06
2023-09-24T09:36:00,mcc,44.43
2023-09-24T09:37:00,mcc,43.58
2023-09-24T09:38:00,mcc,56.53
2023-09-24T09:39:00,mcc,56.09
2023-09-24T09:40:00,mcc,50.38
2023-09-24T09:41:00,mcc,53.19
2023-09-24T09:42:00,mcc,52.33
2023-09-24T09:43:00,mcc,52.69
2023-09-24T09:44:00,mcc,50.47
2023-09-24T09:45:00,mcc,50.65
2023-09-24T09:46:00,mcc,67.01
2023-09-24T09:47:00,mcc,61.72
2023-09-24T09:48:00,mcc,60.99
2023-09-24T09:49:00,mcc,62.39
2023-09-24T09:50:00,mcc,60.04
2023-09-24T09:51:00,mcc,60.19
2023-09-24T09:52:00,mcc,57.58
2023-09-24T09:53:00,mcc,57.38
2023-09-24T09:54:00,mcc,57.70
2023-09-24T09:55:00,mcc,58.06
2023-09-24T09:56:00,mcc,53.83
2023-09-24T09:57:00,mcc,53.51
2023-09-24T09:58:00,mcc,56.93
2023-09-24T09:59:00,mcc,55.56
2023-09-24T10:00:00,mcc,56.34
2023-09-24T10:01:00,mcc,58.47
2023-09-24T10:02:00,mcc,55.11
2023-09-24T10:03:00,mcc,56.54
2023-09-24T10:04:00,mcc,60.66
2023-09-24T10:05:00,mcc,67.38
2023-09-24T10:06:00,mcc,59.37
2023-09-24T10:07:00,mcc,60.52
2023-09-24T10:08:00,mcc,60.13
2023-09-24T10:09:00,mcc,60.64
2023-09-24T10:10:00,mcc,60.62
2023-09-24T10:11:00,mcc,58.92
2023-09-24T10:12:00,mcc,59.93
2023-09-24T10:13:00,mcc,58.66
2023-09-24T10:14:00,mcc,55.70
2023-09-24T10:15:00,mcc,56.44
2023-09-24T10:16:00,mcc,58.76
2023-09-24T10:17:00,mcc,57.18
2023-09-24T10:18:00,mcc,57.38
2023-09-24T10:19:00,mcc,58.66
2023-09-24T10:20:00,mcc,57.66
2023-09-24T10:21:00,mcc,61.21
2023-09-24T10:22:00,mcc,61.51
2023-09-24T10:23:00,mcc,61.00
2023-09-24T10:24:00,mcc,68.99
2023-09-24T10:25:00,mcc,62.42
2023-09-24T10:26:00,mcc,59.27
2023-09-24T10:27:00,mcc,60.94
2023-09-24T10:28:00,mcc,63.65
2023-09-24T10:29:00,mcc,63.67
2023-09-24T10:30:00,mcc,58.79
2023-09-24T10:31:00,mcc,60.22
2023-09-24T10:32:00,mcc,57.64
2023-09-24T10:33:00,mcc,57.15
2023-09-24T10:34:00,mcc,65.49
2023-09-24T10:35:00,mcc,67.05
2023-09-24T10:36:00,mcc,65.57
2023-09-24T10:37:00,mcc,66.16
2023-09-24T10:38:00,mcc,63.32
2023-09-24T10:39:00,mcc,58.25
2023-09-24T10:40:00,mcc,59.17
2023-09-24T10:41:00,mcc,59.25
2023-09-24T10:42:00,mcc,56.95
2023-09-24T10:43:00,mcc,64.47
2023-09-24T10:44:00,mcc,59.98
2023-09-24T10:45:00,mcc,56.93
2023-09-24T10:46:00,mcc,68.18
2023-09-24T10:47:00,mcc,69.71
2023-09-24T10:48:00,mcc,54.94
2023-09-24T10:49:00,mcc,56.34
2023-09-24T10:50:00,mcc,59.15
2023-09-24T10:51:00,mcc,56.51
2023-09-24T10:52:00,mcc,56.53
2023-09-24T10:53:00,mcc,57.88
2023-09-24T10:54:00,mcc,56.42
2023-09-24T10:55:00,mcc,54.43
2023-09-24T10:56:00,mcc,56.08
2023-09-24T10:57:00,mcc,54.74
2023-09-24T10:58:00,mcc,55.35
2023-09-24T10:59:00,mcc,56.64
2023-09-24T11:00:00,mcc,59.58
2023-09-24T11:01:00,mcc,60.82
2023-09-24T11:02:00,mcc,59.62
2023-09-24T11:03:00,mcc,59.29
2023-09-24T11:04:00,mcc,58.99
2023-09-24T11:05:00,mcc,58.58
2023-09-24T11:06:00,mcc,58.06
2023-09-24T11:07:00,mcc,57.18
2023-09-24T11:08:00,mcc,56.68
2023-09-24T11:09:00,mcc,55.73
2023-09-24T11:10:00,mcc,57.16
2023-09-24T11:11:00,mcc,58.01
2023-09-24T11:12:00,mcc,60.09
2023-09-24T11:13:00,mcc,59.72
2023-09-24T11:14:00,mcc,66.27
2023-09-24T11:15:00,mcc,70.37
2023-09-24T11:16:00,mcc,65.91
2023-09-24T11:17:00,mcc,66.33
2023-09-24T11:18:00,mcc,59.29
2023-09-24T11:19:00,mcc,58.26
2023-09-24T11:20:00,mcc,56.38
2023-09-24T11:21:00,mcc,71.02
2023-09-24T11:22:00,mcc,67.31
2023-09-24T11:23:00,mcc,58.34
2023-09-24T11:24:00,mcc,58.84
2023-09-24T11:25:00,mcc,56.44
2023-09-24T11:26:00,mcc,56.07
2023-09-24T11:27:00,mcc,60.72
2023-09-24T11:28:00,mcc,60.63
2023-09-24T11:29:00,mcc,60.41
2023-09-24T11:30:00,mcc,58.84
2023-09-24T11:31:00,mcc,57.54
2023-09-24T11:32:00,mcc,57.47
2023-09-24T11:33:00,mcc,57.16
2023-09-24T11:34:00,mcc,59.12
2023-09-24T11:35:00,mcc,56.67
2023-09-24T11:36:00,mcc,64.19
2023-09-24T11:37:00,mcc,62.50
2023-09-24T11:38:00,mcc,61.25
2023-09-24T11:39:00,mcc,64.50
2023-09-24T11:40:00,mcc,66.62
2023-09-24T11:41:00,mcc,65.21
2023-09-24T11:42:00,mcc,67.25
2023-09-24T11:43:00,mcc,64.71
2023-09-24T11:44:00,mcc,63.92
2023-09-24T11:45:00,mcc,69.91
2023-09-24T11:46:00,mcc,71.61
2023-09-24T11:47:00,mcc,68.96
2023-09-24T11:48:00,mcc,68.50
2023-09-24T11:49:00,mcc,61.33
2023-09-24T11:50:00,mcc,58.37
2023-09-24T11:51:00,mcc,60.59
2023-09-24T11:52:00,mcc,60.79
2023-09-24T11:53:00,mcc,72.66
2023-09-24T11:54:00,mcc,57.93
2023-09-24T11:55:00,mcc,62.22
2023-09-24T11:56:00,mcc,59.09
2023-09-24T11:57:00,mcc,63.27
2023-09-24T11:58:00,mcc,60.84
2023-09-24T11:59:00,mcc,60.76
2023-09-24T12:00:00,mcc,60.53
2023-09-24T12:01:00,mcc,60.40
2023-09-24T12:02:00,mcc,60.60
2023-09-24T12:03:00,mcc,59.47
2023-09-24T12:04:00,mcc,59.74
2023-09-24T12:05:00,mcc,59.58
2023-09-24T12:06:00,mcc,58.23
2023-09-24T12:07:00,mcc,61.04
2023-09-24T12:08:00,mcc,57.58
2023-09-24T12:09:00,mcc,58.93
2023-09-24T12:10:00,mcc,58.52
2023-09-24T12:11:00,mcc,59.04
2023-09-24T12:12:00,mcc,60.45
2023-09-24T12:13:00,mcc,58.87
2023-09-24T12:14:00,mcc,62.27
2023-09-24T12:15:00,mcc,60.54
2023-09-24T12:16:00,mcc,58.95
2023-09-24T12:17:00,mcc,62.11
2023-09-24T12:18:00,mcc,60.71
2023-09-24T12:19:00,mcc,65.44
2023-09-24T12:20:00,mcc,58.95
2023-09-24T12:21:00,mcc,58.03
2023-09-24T12:22:00,mcc,58.74
2023-09-24T12:23:00,mcc,58.68
2023-09-24T12:24:00,mcc,57.11
2023-09-24T12:25:00,mcc,56.31
2023-09-24T12:26:00,mcc,59.00
2023-09-24T12:27:00,mcc,58.23
2023-09-24T12:28:00,mcc,57.64
2023-09-24T12:29:00,mcc,58.11
2023-09-24T12:30:00,mcc,61.43
2023-09-24T12:31:00,mcc,59.86
2023-09-24T12:32:00,mcc,58.61
2023-09-24T12:33:00,mcc,57.07
2023-09-24T12:34:00,mcc,55.46
2023-09-24T12:35:00,mcc,55.91
2023-09-24T12:36:00,mcc,56.31
2023-09-24T12:37:00,mcc,55.94
2023-09-24T12:38:00,mcc,60.20
2023-09-24T12:39:00,mcc,58.89
2023-09-24T12:40:00,mcc,58.97
2023-09-24T12:41:00,mcc,58.81
2023-09-24T12:42:00,mcc,62.19
2023-09-24T12:43:00,mcc,59.61
2023-09-24T12:44:00,mcc,72.33
2023-09-24T12:45:00,mcc,72.60
2023-09-24T12:46:00,mcc,70.59
2023-09-24T12:47:00,mcc,58.36
2023-09-24T12:48:00,mcc,59.75
2023-09-24T12:49:00,mcc,58.05
2023-09-24T12:50:00,mcc,57.56
2023-09-24T12:51:00,mcc,59.45
2023-09-24T12:52:00,mcc,59.38
2023-09-24T12:53:00,mcc,61.39
2023-09-24T12:54:00,mcc,62.52
2023-09-24T12:55:00,mcc,60.03
2023-09-24T12:56:00,mcc,61.50
2023-09-24T12:57:00,mcc,61.82
2023-09-24T12:58:00,mcc,68.54
2023-09-24T12:59:00,mcc,61.47
2023-09-24T13:00:00,mcc,78.39
2023-09-24T13:01:00,mcc,75.51
2023-09-24T13:02:00,mcc,63.36
2023-09-24T13:03:00,mcc,63.17
2023-09-24T13:04:00,mcc,64.60
2023-09-24T13:05:00,mcc,59.51
2023-09-24T13:06:00,mcc,60.95
2023-09-24T13:07:00,mcc,62.91
2023-09-24T13:08:00,mcc,59.70
2023-09-24T13:09:00,mcc,58.16
2023-09-24T13:10:00,mcc,60.59
2023-09-24T13:11:00,mcc,59.48
2023-09-24T13:12:00,mcc,61.12
2023-09-24T13:13:00,mcc,61.51
2023-09-24T13:14:00,mcc,60.13
2023-09-24T13:15:00,mcc,61.27
2023-09-24T13:16:00,mcc,63.52
2023-09-24T13:17:00,mcc,61.27
2023-09-24T13:18:00,mcc,60.69